Weather History for Chicago Executive, IL

Change the Weather History Date:

Thursday, March 13, 2014

  Actual Average Record
Temperature  
Mean Temperature 24 °F 37 °F  
Max Temperature 39 °F 45 °F 73 °F (2007)
Min Temperature 10 °F 28 °F 9 °F (2014)
Degree Days  
Heating Degree Days 42 28  
Month to date heating degree days 395  
Since 1 July heating degree days 5133  
Cooling Degree Days 0 0  
Month to date cooling degree days 0  
Year to date cooling degree days 0  
Moisture  
Dew Point 17 °F    
Average Humidity 73    
Maximum Humidity 85    
Minimum Humidity 57    
Precipitation  
Precipitation 0.00 in 0.06 in 0.46 in (2006)
Month to date precipitation 0.81  
Year to date precipitation 3.39  
Sea Level Pressure  
Sea Level Pressure 30.05 in    
Wind  
Wind Speed 5 mph (SSW)    
Max Wind Speed 20 mph    
Max Gust Speed 26 mph    
Visibility 10 miles    
Events      
T = Trace of Precipitation, MM = Missing Value Source: NWS Daily Summary

Daily Weather History Graph

Daily Weather History Graph

Search for Another Location

Airport:

Trip Planner

Search our weather history database for the weather conditions in past years. The results will help you decide how hot, cold, wet, or windy it might be!

Date:

Astronomy

Mar. 13, 2014 Rise Set
Actual Time 7:06 AM CDT 6:55 PM CDT
Civil Twilight 6:39 AM CDT 7:23 PM CDT
Nautical Twilight 6:06 AM CDT 7:56 PM CDT
Astronomical Twilight 5:33 AM CDT 8:29 PM CDT
Moon 4:19 PM CDT (3/13) 5:16 AM CDT (3/13)
Length of Visible Light 12h 44m
Length of Day
11h 48m
Waxing Gibbous, 91% of the Moon is Illuminated
Mar 13
Waxing Gibbous
Mar 16
Full
Mar 23
Last Quarter
Mar 30
New
Apr 7
First Quarter

Hourly Weather History & Observations

Time (CDT) Temp. Windchill Dew Point Humidity Pressure Visibility Wind Dir Wind Speed Gust Speed Precip Events Conditions
12:52 AM 15.1 °F - 5.0 °F 64% 30.15 in 10.0 mi Calm Calm - N/A   Clear
1:52 AM 15.1 °F - 5.0 °F 64% 30.15 in 10.0 mi Calm Calm - N/A   Clear
2:52 AM 14.0 °F - 5.0 °F 67% 30.14 in 10.0 mi Calm Calm - N/A   Clear
3:52 AM 14.0 °F - 6.1 °F 71% 30.14 in 10.0 mi Calm Calm - N/A   Clear
4:52 AM 10.0 °F - 5.0 °F 80% 30.14 in 10.0 mi Calm Calm - N/A   Clear
5:52 AM 10.9 °F - 6.1 °F 81% 30.16 in 10.0 mi Calm Calm - N/A   Clear
6:52 AM 10.0 °F - 5.0 °F 80% 30.16 in 10.0 mi Calm Calm - N/A   Clear
7:52 AM 12.0 °F 5.9 °F 8.1 °F 84% 30.16 in 10.0 mi South 3.5 mph - N/A   Clear
8:52 AM 19.9 °F 12.1 °F 10.0 °F 65% 30.17 in 10.0 mi South 5.8 mph - N/A   Clear
9:52 AM 24.1 °F 11.0 °F 10.9 °F 57% 30.15 in - SSW 16.1 mph - N/A   Unknown
10:52 AM 27.0 °F 15.2 °F 15.1 °F 61% 30.13 in 10.0 mi South 15.0 mph - N/A   Unknown
11:52 AM 27.0 °F 16.1 °F 18.0 °F 69% 30.12 in 10.0 mi SSW 12.7 mph - N/A   Unknown
12:52 PM 28.0 °F - 19.0 °F 69% 30.09 in 10.0 mi North - - N/A   Overcast
1:52 PM 28.9 °F - 21.9 °F 75% 30.04 in 10.0 mi North - - N/A   Overcast
2:52 PM - - - N/A% 29.97 in - North - - N/A   Unknown
3:52 PM - - - N/A% 29.95 in - North - - N/A   Unknown
4:52 PM 35.1 °F 25.9 °F 25.0 °F 67% 29.98 in 10.0 mi SSW 13.8 mph - N/A   Clear
5:52 PM 35.1 °F 24.1 °F 26.1 °F 70% 29.97 in 10.0 mi SSW 19.6 mph 26.5 mph N/A   Clear
6:52 PM 34.0 °F 24.2 °F 27.0 °F 75% 29.96 in 10.0 mi SSW 15.0 mph 23.0 mph N/A   Clear
7:52 PM 34.0 °F 25.0 °F 28.9 °F 82% 29.94 in 10.0 mi SSW 12.7 mph - N/A   Clear
8:52 PM 34.0 °F 25.5 °F 30.0 °F 85% 29.92 in 9.0 mi SSW 11.5 mph - N/A   Clear
9:52 PM 35.1 °F 27.9 °F 30.9 °F 85% 29.89 in 8.0 mi South 9.2 mph - N/A   Clear
10:52 PM 37.9 °F 29.2 °F 32.0 °F 79% 29.88 in 10.0 mi SSW 15.0 mph - N/A   Clear
11:52 PM 39.0 °F 30.6 °F 32.0 °F 76% 29.86 in 10.0 mi SSW 15.0 mph - N/A   Clear